| time (UTC) | temp F | wind direction | speed MPH | gust MPH | rain 1hr in | rain 24hr in | rain mn in | humidity % | barometer mb |
| 20260507103046 | 43 | 220 | 4.0 | 9.0 | 0.00 | 0.00 | 0.00 | 86 | 1016.1 |
| 20260507101531 | 43 | 250 | 5.0 | 9.0 | 0.00 | 0.00 | 0.00 | 86 | 1016.3 |
| 20260507100030 | 43 | 247 | 5.0 | 10.0 | 0.00 | 0.00 | 0.00 | 85 | 1016.3 |
| 20260507094531 | 43 | 219 | 4.0 | 11.0 | 0.00 | 0.00 | 0.00 | 84 | 1016.5 |
| 20260507093024 | 43 | 250 | 5.0 | 10.0 | 0.00 | 0.00 | 0.00 | 83 | 1016.5 |
| 20260507091529 | 44 | 211 | 6.0 | 11.0 | 0.00 | 0.00 | 0.00 | 82 | 1016.6 |
| 20260507090018 | 44 | 240 | 5.0 | 13.0 | 0.00 | 0.00 | 0.00 | 81 | 1016.8 |
| 20260507084534 | 45 | 252 | 5.0 | 11.0 | 0.00 | 0.00 | 0.00 | 81 | 1017.0 |
| 20260507083014 | 45 | 200 | 5.0 | 9.0 | 0.00 | 0.00 | 0.00 | 80 | 1017.0 |
| 20260507081513 | 45 | 244 | 6.0 | 10.0 | 0.00 | 0.00 | 0.00 | 80 | 1017.2 |
| 20260507080009 | 46 | 213 | 6.0 | 11.0 | 0.00 | 0.00 | 0.00 | 79 | 1017.4 |
| 20260507074508 | 46 | 259 | 5.0 | 11.0 | 0.00 | 0.00 | 0.00 | 79 | 1017.7 |
| 20260507073004 | 46 | 231 | 5.0 | 10.0 | 0.00 | 0.00 | 0.00 | 78 | 1017.8 |
| 20260507071501 | 46 | 227 | 5.0 | 11.0 | 0.00 | 0.00 | 0.00 | 78 | 1018.1 |
| 20260507070107 | 46 | 234 | 5.0 | 13.0 | 0.00 | 0.00 | 0.00 | 76 | 1018.2 |
| 20260507064559 | 46 | 244 | 6.0 | 10.0 | 0.00 | 0.00 | 0.00 | 75 | 1018.4 |
| 20260507063051 | 47 | 243 | 5.0 | 10.0 | 0.00 | 0.00 | 0.00 | 74 | 1018.6 |
| 20260507061550 | 48 | 220 | 6.0 | 10.0 | 0.00 | 0.00 | 0.00 | 72 | 1018.7 |
| 20260507060047 | 48 | 222 | 6.0 | 13.0 | 0.00 | 0.00 | 0.00 | 71 | 1018.7 |
| 20260507054606 | 48 | 242 | 6.0 | 11.0 | 0.00 | 0.00 | 0.00 | 70 | 1018.7 |
| 20260507053053 | 48 | 223 | 6.0 | 11.0 | 0.00 | 0.00 | 0.00 | 68 | 1018.8 |
| 20260507051547 | 48 | 249 | 5.0 | 9.0 | 0.00 | 0.00 | 0.00 | 65 | 1018.8 |
| 20260507050046 | 48 | 222 | 5.0 | 10.0 | 0.00 | 0.00 | 0.00 | 63 | 1018.8 |
| 20260507044540 | 49 | 245 | 5.0 | 9.0 | 0.00 | 0.00 | 0.00 | 62 | 1018.9 |
| 20260507043035 | 49 | 252 | 3.0 | 7.0 | 0.00 | 0.00 | 0.00 | 60 | 1019.1 |
| 20260507041535 | 49 | 234 | 4.0 | 10.0 | 0.00 | 0.00 | 0.00 | 58 | 1019.2 |
| 20260507040039 | 49 | 241 | 4.0 | 8.0 | 0.00 | 0.00 | 0.00 | 57 | 1019.2 |
| 20260507034533 | 49 | 231 | 3.0 | 7.0 | 0.00 | 0.00 | 0.00 | 54 | 1019.4 |
| 20260507033033 | 49 | 236 | 2.0 | 5.0 | 0.00 | 0.00 | 0.00 | 51 | 1019.4 |
| 20260507031537 | 50 | 239 | 2.0 | 4.0 | 0.00 | 0.00 | 0.00 | 49 | 1019.4 |
| 20260507030032 | 50 | 227 | 3.0 | 5.0 | 0.00 | 0.00 | 0.00 | 48 | 1019.5 |
| 20260507024632 | 50 | 226 | 2.0 | 4.0 | 0.00 | 0.00 | 0.00 | 47 | 1019.3 |
| 20260507023030 | 50 | 234 | 0.0 | 1.0 | 0.00 | 0.00 | 0.00 | 48 | 1019.2 |
| 20260507021535 | 51 | 242 | 0.0 | 1.0 | 0.00 | 0.00 | 0.00 | 45 | 1019.1 |
| 20260507020031 | 52 | 203 | 0.0 | 2.0 | 0.00 | 0.00 | 0.00 | 44 | 1018.9 |
| 20260507014531 | 53 | 225 | 0.0 | 1.0 | 0.00 | 0.00 | 0.00 | 42 | 1018.9 |
| 20260507013029 | 55 | 225 | 0.0 | 1.0 | 0.00 | 0.00 | 0.00 | 38 | 1018.8 |
| 20260507011528 | 56 | 283 | 0.0 | 2.0 | 0.00 | 0.00 | 0.00 | 37 | 1018.8 |
| 20260507010037 | 57 | 274 | 0.0 | 3.0 | 0.00 | 0.00 | 0.00 | 35 | 1018.9 |
| 20260507004527 | 58 | 285 | 1.0 | 6.0 | 0.00 | 0.00 | 0.00 | 34 | 1018.8 |
| 20260507003026 | 58 | 297 | 2.0 | 5.0 | 0.00 | 0.00 | 0.00 | 32 | 1018.9 |
| 20260507001533 | 58 | 256 | 2.0 | 5.0 | 0.00 | 0.00 | 0.00 | 33 | 1019.1 |
| 20260507000031 | 58 | 254 | 2.0 | 7.0 | 0.00 | 0.00 | 0.00 | 34 | 1019.3 |
| 20260506234522 | 59 | 293 | 2.0 | 6.0 | 0.00 | 0.00 | 0.00 | 32 | 1019.3 |
| 20260506233022 | 59 | 7 | 1.0 | 8.0 | 0.00 | 0.00 | 0.00 | 33 | 1019.4 |
| 20260506231521 | 59 | 248 | 4.0 | 11.0 | 0.00 | 0.00 | 0.00 | 32 | 1019.5 |
| 20260506230022 | 60 | 240 | 3.0 | 10.0 | 0.00 | 0.00 | 0.00 | 34 | 1019.6 |
| 20260506224520 | 59 | 263 | 2.0 | 9.0 | 0.00 | 0.00 | 0.00 | 32 | 1019.8 |
| 20260506223017 | 59 | 232 | 4.0 | 19.0 | 0.00 | 0.00 | 0.00 | 33 | 1019.8 |
| 20260506221517 | 59 | 269 | 3.0 | 9.0 | 0.00 | 0.00 | 0.00 | 35 | 1019.9 |
| 20260506220017 | 59 | 278 | 4.0 | 10.0 | 0.00 | 0.00 | 0.00 | 33 | 1019.9 |
| 20260506214516 | 58 | 290 | 2.0 | 6.0 | 0.00 | 0.00 | 0.00 | 34 | 1020.1 |
| 20260506213015 | 58 | 274 | 4.0 | 10.0 | 0.00 | 0.00 | 0.00 | 32 | 1020.5 |
| 20260506211526 | 60 | 242 | 3.0 | 15.0 | 0.00 | 0.00 | 0.00 | 33 | 1020.5 |
| 20260506210024 | 59 | 301 | 6.0 | 11.0 | 0.00 | 0.00 | 0.00 | 32 | 1020.6 |
| 20260506204516 | 58 | 302 | 3.0 | 6.0 | 0.00 | 0.00 | 0.00 | 34 | 1020.9 |
| 20260506203011 | 58 | 290 | 6.0 | 13.0 | 0.00 | 0.00 | 0.00 | 33 | 1021.1 |
| 20260506201511 | 59 | 245 | 6.0 | 14.0 | 0.00 | 0.00 | 0.00 | 34 | 1021.1 |
| 20260506200011 | 59 | 27 | 5.0 | 15.0 | 0.00 | 0.00 | 0.00 | 36 | 1021.4 |
| 20260506194507 | 57 | 257 | 1.0 | 7.0 | 0.00 | 0.00 | 0.00 | 34 | 1021.6 |
| 20260506193006 | 57 | 312 | 2.0 | 10.0 | 0.00 | 0.00 | 0.00 | 34 | 1021.6 |
| 20260506191506 | 58 | 280 | 4.0 | 11.0 | 0.00 | 0.00 | 0.00 | 35 | 1021.6 |
| 20260506190006 | 57 | 293 | 3.0 | 9.0 | 0.00 | 0.00 | 0.00 | 35 | 1021.7 |
| 20260506184504 | 57 | 268 | 1.0 | 12.0 | 0.00 | 0.00 | 0.00 | 34 | 1021.8 |
| 20260506183003 | 57 | 290 | 1.0 | 9.0 | 0.00 | 0.00 | 0.00 | 34 | 1021.9 |
| 20260506181504 | 57 | 331 | 3.0 | 9.0 | 0.00 | 0.00 | 0.00 | 33 | 1022.1 |
| 20260506180002 | 58 | 47 | 2.0 | 11.0 | 0.00 | 0.00 | 0.00 | 38 | 1022.2 |
| 20260506174600 | 57 | 299 | 2.0 | 9.0 | 0.00 | 0.00 | 0.00 | 35 | 1022.4 |
| 20260506173126 | 57 | 338 | 1.0 | 6.0 | 0.00 | 0.00 | 0.00 | 34 | 1022.5 |
| 20260506171604 | 55 | 259 | 0.0 | 8.0 | 0.00 | 0.00 | 0.00 | 35 | 1022.6 |
| 20260506170106 | 55 | 328 | 2.0 | 6.0 | 0.00 | 0.00 | 0.00 | 38 | 1022.8 |
| 20260506164554 | 54 | 270 | 4.0 | 10.0 | 0.00 | 0.00 | 0.00 | 37 | 1022.9 |
| 20260506163057 | 54 | 323 | 2.0 | 8.0 | 0.00 | 0.00 | 0.00 | 40 | 1022.9 |
| 20260506161550 | 53 | 294 | 1.0 | 4.0 | 0.00 | 0.00 | 0.00 | 41 | 1023.1 |
| 20260506160049 | 53 | 332 | 1.0 | 6.0 | 0.00 | 0.00 | 0.00 | 37 | 1023.0 |
| 20260506154605 | 52 | 79 | 1.0 | 8.0 | 0.00 | 0.00 | 0.00 | 39 | 1022.8 |
| 20260506153044 | 51 | 290 | 1.0 | 5.0 | 0.00 | 0.00 | 0.00 | 38 | 1023.1 |
| 20260506151543 | 51 | 323 | 1.0 | 5.0 | 0.00 | 0.00 | 0.00 | 40 | 1022.9 |
| 20260506150039 | 50 | 279 | 0.0 | 7.0 | 0.00 | 0.00 | 0.00 | 43 | 1023.0 |
| 20260506144543 | 49 | 202 | 0.0 | 4.0 | 0.00 | 0.00 | 0.00 | 46 | 1022.9 |
| 20260506143036 | 49 | 283 | 0.0 | 3.0 | 0.00 | 0.00 | 0.00 | 45 | 1022.9 |
| 20260506141533 | 48 | 65 | 1.0 | 3.0 | 0.00 | 0.00 | 0.00 | 48 | 1022.8 |
| 20260506140035 | 48 | 51 | 2.0 | 4.0 | 0.00 | 0.00 | 0.00 | 51 | 1022.9 |
| 20260506134531 | 47 | 96 | 1.0 | 3.0 | 0.00 | 0.00 | 0.00 | 49 | 1022.7 |
| 20260506133035 | 47 | 45 | 1.0 | 5.0 | 0.00 | 0.00 | 0.00 | 53 | 1022.5 |
| 20260506131529 | 47 | 295 | 0.0 | 2.0 | 0.00 | 0.00 | 0.00 | 56 | 1022.3 |
| 20260506130026 | 45 | 308 | 0.0 | 1.0 | 0.00 | 0.00 | 0.00 | 58 | 1022.3 |
| 20260506124525 | 43 | 297 | 0.0 | 2.0 | 0.00 | 0.00 | 0.00 | 61 | 1022.2 |
| 20260506123022 | 42 | 297 | 0.0 | 1.0 | 0.00 | 0.00 | 0.00 | 62 | 1021.8 |
| 20260506121520 | 0 | 0.0 | 0.0 | 0.00 | 0.00 | 0.00 | 1021.5 | ||
| 20260506120017 | 0 | 0.0 | 0.0 | 0.00 | 0.00 | 0.00 | 1021.2 | ||
| 20260506114511 | 0 | 0.0 | 0.0 | 0.00 | 0.00 | 0.00 | 1021.1 | ||
| 20260506113007 | 0 | 300 | 0.0 | 1.0 | 0.00 | 0.00 | 0.00 | 1021.0 | |
| 20260506111505 | 40 | 295 | 0.0 | 0.0 | 0.00 | 0.00 | 0.00 | 66 | 1020.9 |
| 20260506110001 | 41 | 295 | 0.0 | 1.0 | 0.00 | 0.00 | 0.00 | 66 | 1020.8 |
| 20260506104630 | 42 | 295 | 0.0 | 1.0 | 0.00 | 0.00 | 0.00 | 63 | 1020.8 |